When you browse on this site, cookies collect data to enhance your experience and personalize the content and advertising you see.
Visit our Privacy Policy to learn more. By continuing to use the site, you agree to this use of cookies and data.
  • In Portugal
  • List of Countries
  • For 7 days
  • Water Temperature
  • Weather Map
  • Weather Widgets
  • user-avatar
    Login

    Hourly Weather Graz

    Today, 17 November, Sunday

    Time Temperature Precipitation Wind Pressure Humidity
    00:00 +9°C° 0 mm 1 mps 721 mmHg 95%
    01:00 +9°C° 0 mm 1 mps 721 mmHg 96%
    02:00 +9°C° 0.2 mm 1 mps 720 mmHg 96%
    03:00 +9°C° 0.2 mm 1 mps 720 mmHg 97%
    04:00 +9°C° 0.2 mm 1 mps 719 mmHg 97%
    05:00 +9°C° 0.1 mm 1 mps 719 mmHg 98%
    06:00 +9°C° 0.1 mm 1 mps 719 mmHg 98%
    07:00 +9°C° 0 mm 2 mps 719 mmHg 98%
    08:00 +9°C° 0 mm 2 mps 719 mmHg 97%
    09:00 +9°C° 0 mm 2 mps 719 mmHg 97%
    10:00 +10°C° 0 mm 1 mps 718 mmHg 96%
    11:00 +10°C° 0 mm 1 mps 718 mmHg 96%
    12:00 +11°C° 0 mm 1 mps 718 mmHg 95%
    13:00 +10°C° 0 mm 2 mps 718 mmHg 94%
    14:00 +10°C° 0 mm 2 mps 717 mmHg 95%
    15:00 +10°C° 0 mm 2 mps 717 mmHg 95%
    16:00 +10°C° 0 mm 2 mps 716 mmHg 96%
    17:00 +10°C° 0.2 mm 2 mps 716 mmHg 96%
    18:00 +10°C° 0.2 mm 2 mps 716 mmHg 96%
    19:00 +10°C° 0.2 mm 2 mps 716 mmHg 97%
    20:00 +10°C° 2.5 mm 2 mps 716 mmHg 97%
    21:00 +10°C° 2.5 mm 2 mps 716 mmHg 97%
    22:00 +11°C° 2.5 mm 1 mps 716 mmHg 97%
    23:00 +11°C° 0.8 mm 1 mps 716 mmHg 97%

    Tomorrow, 18 November, Monday

    Time Temperature Precipitation Wind Pressure Humidity
    00:00 +10°C° 0.8 mm 2 mps 716 mmHg 97%
    01:00 +10°C° 0.8 mm 2 mps 716 mmHg 97%
    02:00 +10°C° 0.4 mm 2 mps 716 mmHg 98%
    03:00 +10°C° 0.4 mm 2 mps 716 mmHg 98%
    04:00 +10°C° 0.4 mm 2 mps 716 mmHg 98%
    05:00 +10°C° 0.3 mm 2 mps 716 mmHg 97%
    06:00 +10°C° 0.3 mm 1 mps 717 mmHg 97%
    07:00 +10°C° 0.3 mm 1 mps 717 mmHg 96%
    08:00 +10°C° 0 mm 1 mps 717 mmHg 93%
    09:00 +11°C° 0 mm 1 mps 718 mmHg 89%
    10:00 +10°C° 0 mm 2 mps 718 mmHg 86%
    11:00 +12°C° 0 mm 2 mps 719 mmHg 78%
    12:00 +12°C° 0 mm 2 mps 719 mmHg 70%
    13:00 +13°C° 0 mm 2 mps 720 mmHg 62%
    14:00 +12°C° 0 mm 2 mps 720 mmHg 67%
    15:00 +10°C° 0 mm 2 mps 721 mmHg 71%
    16:00 +9°C° 0 mm 1 mps 721 mmHg 75%
    17:00 +9°C° 0 mm 1 mps 721 mmHg 78%
    18:00 +8°C° 0 mm 1 mps 722 mmHg 81%
    19:00 +7°C° 0 mm 1 mps 722 mmHg 84%
    20:00 +7°C° 0 mm 1 mps 723 mmHg 85%
    21:00 +7°C° 0 mm 1 mps 723 mmHg 85%
    22:00 +6°C° 0 mm 1 mps 723 mmHg 86%
    23:00 +6°C° 0 mm 1 mps 723 mmHg 86%

    Day after tomorrow, 19 November, Tuesday

    Time Temperature Precipitation Wind Pressure Humidity
    00:00 +5°C° 0 mm 0 mps 724 mmHg 86%
    01:00 +6°C° 0 mm 0 mps 724 mmHg 87%
    02:00 +5°C° 0 mm 0 mps 724 mmHg 88%
    03:00 +5°C° 0 mm 0 mps 723 mmHg 89%
    04:00 +5°C° 0 mm 0 mps 723 mmHg 91%
    05:00 +5°C° 0 mm 0 mps 723 mmHg 92%
    06:00 +5°C° 0 mm 0 mps 723 mmHg 93%
    07:00 +6°C° 0 mm 1 mps 723 mmHg 94%
    08:00 +7°C° 0 mm 1 mps 723 mmHg 92%
    09:00 +8°C° 0 mm 1 mps 723 mmHg 90%
    10:00 +9°C° 0 mm 1 mps 724 mmHg 88%
    11:00 +10°C° 0 mm 1 mps 723 mmHg 85%
    12:00 +10°C° 0 mm 1 mps 723 mmHg 82%
    13:00 +11°C° 0 mm 1 mps 723 mmHg 79%
    14:00 +11°C° 0 mm 1 mps 723 mmHg 82%
    15:00 +10°C° 0 mm 1 mps 723 mmHg 86%
    16:00 +9°C° 0 mm 1 mps 723 mmHg 89%
    17:00 +9°C° 0 mm 1 mps 723 mmHg 90%
    18:00 +9°C° 0 mm 1 mps 723 mmHg 92%
    19:00 +8°C° 0 mm 1 mps 723 mmHg 93%
    20:00 +7°C° 0 mm 0 mps 724 mmHg 94%
    21:00 +7°C° 0 mm 0 mps 724 mmHg 94%
    22:00 +7°C° 0 mm 0 mps 724 mmHg 94%
    23:00 +7°C° 0 mm 0 mps 724 mmHg 94%

    20 November, Wednesday

    Time Temperature Precipitation Wind Pressure Humidity
    00:00 +6°C° 0 mm 0 mps 724 mmHg 94%
    01:00 +6°C° 0 mm 0 mps 724 mmHg 94%
    02:00 +6°C° 0 mm 0 mps 724 mmHg 94%
    03:00 +6°C° 0 mm 0 mps 724 mmHg 93%
    04:00 +6°C° 0 mm 0 mps 723 mmHg 93%
    05:00 +6°C° 0 mm 0 mps 723 mmHg 93%
    06:00 +6°C° 0 mm 0 mps 724 mmHg 93%
    07:00 +6°C° 0 mm 0 mps 724 mmHg 93%
    08:00 +7°C° 0 mm 0 mps 724 mmHg 90%
    09:00 +8°C° 0 mm 0 mps 724 mmHg 86%
    10:00 +9°C° 0 mm 0 mps 724 mmHg 82%
    11:00 +10°C° 0 mm 0 mps 724 mmHg 80%
    12:00 +11°C° 0 mm 0 mps 723 mmHg 77%
    13:00 +11°C° 0 mm 0 mps 723 mmHg 75%
    14:00 +10°C° 0 mm 0 mps 723 mmHg 80%
    15:00 +9°C° 0 mm 0 mps 723 mmHg 84%
    16:00 +8°C° 0 mm 0 mps 722 mmHg 89%
    17:00 +8°C° 0 mm 0 mps 722 mmHg 90%
    18:00 +8°C° 0 mm 0 mps 722 mmHg 90%
    19:00 +7°C° 0 mm 0 mps 722 mmHg 90%
    20:00 +7°C° 0 mm 0 mps 722 mmHg 90%
    21:00 +7°C° 0 mm 0 mps 722 mmHg 90%
    22:00 +8°C° 0 mm 1 mps 722 mmHg 89%
    23:00 +7°C° 0 mm 1 mps 722 mmHg 90%

    21 November, Thursday

    Time Temperature Precipitation Wind Pressure Humidity
    00:00 +7°C° 0 mm 1 mps 721 mmHg 90%
    01:00 +7°C° 0 mm 1 mps 721 mmHg 90%
    02:00 +7°C° 0 mm 1 mps 721 mmHg 91%
    03:00 +6°C° 0 mm 1 mps 721 mmHg 91%
    04:00 +5°C° 0 mm 0 mps 720 mmHg 92%
    05:00 +5°C° 0 mm 0 mps 720 mmHg 92%
    06:00 +5°C° 0 mm 0 mps 720 mmHg 92%
    07:00 +5°C° 0 mm 0 mps 720 mmHg 92%
    08:00 +6°C° 0 mm 0 mps 720 mmHg 88%
    09:00 +7°C° 0 mm 0 mps 721 mmHg 83%
    10:00 +9°C° 0 mm 0 mps 721 mmHg 79%
    11:00 +10°C° 0 mm 1 mps 720 mmHg 78%
    12:00 +11°C° 0 mm 1 mps 720 mmHg 76%
    13:00 +11°C° 0 mm 1 mps 720 mmHg 75%
    14:00 +10°C° 0 mm 1 mps 720 mmHg 80%
    15:00 +10°C° 0 mm 1 mps 720 mmHg 85%
    16:00 +8°C° 0 mm 0 mps 719 mmHg 90%
    17:00 +7°C° 0 mm 0 mps 720 mmHg 91%
    18:00 +7°C° 0 mm 0 mps 720 mmHg 92%
    19:00 +7°C° 0 mm 0 mps 720 mmHg 93%
    20:00 +7°C° 0 mm 1 mps 720 mmHg 93%
    21:00 +7°C° 0 mm 1 mps 721 mmHg 93%
    22:00 +7°C° 0 mm 1 mps 721 mmHg 94%
    23:00 +7°C° 0 mm 1 mps 721 mmHg 94%

    22 November, Friday

    Time Temperature Precipitation Wind Pressure Humidity
    00:00 +7°C° 0 mm 1 mps 721 mmHg 94%
    01:00 +6°C° 0 mm 1 mps 721 mmHg 94%
    02:00 +6°C° 0 mm 1 mps 721 mmHg 94%
    03:00 +6°C° 0 mm 1 mps 721 mmHg 94%
    04:00 +6°C° 0 mm 1 mps 721 mmHg 94%
    05:00 +5°C° 0 mm 1 mps 721 mmHg 93%
    06:00 +5°C° 0 mm 1 mps 721 mmHg 93%
    07:00 +5°C° 0 mm 1 mps 722 mmHg 93%
    08:00 +6°C° 0 mm 1 mps 722 mmHg 88%
    09:00 +8°C° 0 mm 1 mps 722 mmHg 83%
    10:00 +9°C° 0 mm 1 mps 722 mmHg 78%
    11:00 +10°C° 0 mm 1 mps 722 mmHg 75%
    12:00 +11°C° 0 mm 1 mps 722 mmHg 72%
    13:00 +12°C° 0 mm 1 mps 722 mmHg 69%
    14:00 +11°C° 0 mm 1 mps 722 mmHg 74%
    15:00 +10°C° 0 mm 1 mps 721 mmHg 80%
    16:00 +9°C° 0 mm 1 mps 721 mmHg 85%
    17:00 +8°C° 0 mm 1 mps 721 mmHg 87%
    18:00 +8°C° 0 mm 1 mps 721 mmHg 89%
    19:00 +7°C° 0 mm 1 mps 721 mmHg 91%
    20:00 +7°C° 0 mm 1 mps 721 mmHg 91%
    21:00 +7°C° 0 mm 1 mps 721 mmHg 92%
    22:00 +6°C° 0 mm 1 mps 721 mmHg 93%
    23:00 +6°C° 0 mm 1 mps 721 mmHg 93%
    Show more